User: anonymous   Login
Location: Caltech
(34.1382°N, 118.1253°W)
Time: 12:22:54
(UTC-07:00)
Language:

Hamsat - Orbit

View from above orbital plane
View from above orbital plane
View from above satellite
View from above satellite

Ground track
Ground track

The orbit data is extracted from the following two-line orbital elements,

1 28650U 05017B   15238.85151833  .00000757  00000-0  88595-4 0  9995
2 28650 097.5800 228.1410 0024720 154.0587 206.1875 14.87587685557954
Epoch (UTC): 26 August 2015 20:26:11
Eccentricity: 0.0024720
inclination: 97.5800°
perigee height: 588 km
apogee height: 623 km
right ascension of ascending node: 228.1410°
argument of perigee: 154.0587°
revolutions per day: 14.87587685
mean anomaly at epoch: 206.1875°
orbit number at epoch: 55795

The dashed part of the orbit path shows where the satellite is in the earth's shadow,  

DLR